Orbital Elements at Epoch 2459000.5 (2020-May-31.0) TDB
Reference: JPL 15 (heliocentric ecliptic J2000)
Element | Value | Uncertainty (1-sigma) | Units |
e | .05468834355737302 | 6.3773e-08 | |
a | 3.165808938483058 | 3.7529e-08 | au |
q | 2.992676091618294 | 2.0995e-07 | au |
i | 10.41380159361153 | 7.0638e-06 | deg |
node | 101.5656959156482 | 3.6858e-05 | deg |
peri | 22.51620243798432 | 8.4778e-05 | deg |
M | 24.35382449563551 | 7.186e-05 | deg |
tp | 2458861.315732060498 (2020-Jan-12.81573206) | 0.0004115 | TDB |
period | 2057.431943274468 5.63 | 3.6584e-05 1.002e-07 | d yr |
n | .1749754110588216 | 3.1113e-09 | deg/d |
Q | 3.338941785347822 | 3.9581e-08 | au |
|
| | Orbit Determination Parameters
Additional Information
|